Tracking 17782 objects as of 26-July-2016
HD Live streaming from Space Station
objects crossing your sky now

ARIANE 44L+3 R/B

Track ARIANE 44L+3 R/B now!


NORAD ID: 23866
Int'l Code: 1996-030C
Perigee: 284.6 km
Apogee: 30,859.2 km
Inclination: 4.4 °
Period: 539.1 minutes
Semi major axis: 21942 km
RCS: 20.3809 m2 (large)
Launch date: May 16, 1996
Source: France (FR)
Launch site: FRENCH GUIANA (FRGUI)

Note: This is a ROCKET BODY
Your satellite tracking list
Your tracking list is empty





NASA's NSSDC Master Catalog

Two Line Element Set (TLE):
1 23866U 96030C   16207.40928227  .00003652  00000-0  13617-2 0  9999
2 23866   4.4316 335.8109 6966861 334.0310   3.3993  2.67093045182284
Source of the keplerian elements: AFSPC

N2YO: 1161